Change the Weather History Date:

Tuesday, October 11, 2011

  Actual Average Record
Temperature  
Mean Temperature 66 °F 61 °F  
Max Temperature 75 °F 72 °F 90 °F (2010)
Min Temperature 56 °F 50 °F 30 °F (1906)
Degree Days  
Heating Degree Days 0 6  
Month to date heating degree days 28 50  
Since 1 July heating degree days 67 80  
Cooling Degree Days 1 2  
Month to date cooling degree days 24 26  
Year to date cooling degree days 1846 1593  
Growing Degree Days 16 (Base 50)    
Moisture  
Dew Point 53 °F    
Average Humidity 63    
Maximum Humidity 80    
Minimum Humidity 46    
Precipitation  
Precipitation 0.00 in 0.11 in 1.02 in (1898)
Month to date precipitation 0.00 1.17  
Year to date precipitation 52.80 35.44  
Snow  
Snow 0.00 in 0.00 in 0.00 in ()
Month to date snowfall 0.0 0.0  
Since 1 July snowfall 0.0 0.0  
Since 1 September snowfall 0.0 0.0  
Snow Depth 0.00 in    
Sea Level Pressure  
Sea Level Pressure 29.99 in    
Wind  
Wind Speed 4 mph (ESE)    
Max Wind Speed 13 mph    
Max Gust Speed 18 mph    
Visibility 10 miles    
Events      
T = Trace of Precipitation, MM = Missing Value Source: NWS Daily Summary

Daily Weather History Graph

Daily Weather History Graph

Search for Another Location

Airport or City:

Trip Planner

Search our weather history database for the weather conditions in past years. The results will help you decide how hot, cold, wet, or windy it might be!

Date:

Astronomy

Oct. 11, 2011 Rise Set
Actual Time 7:47 AM EDT 7:11 PM EDT
Civil Twilight 7:21 AM EDT 7:37 PM EDT
Nautical Twilight 6:50 AM EDT 8:08 PM EDT
Astronomical Twilight 6:19 AM EDT 8:38 PM EDT
Moon 6:43 PM EDT (10/11) 7:24 AM EDT (10/11)
Length of Visible Light 12h 16m
Length of Day
11h 23m
Full, 100% of the Moon is Illuminated
Oct 11
Full
Oct 11
Full
Oct 19
Last Quarter
Oct 26
New
Nov 2
First Quarter

Hourly Weather History & Observations

Time (EDT) Temp. Dew Point Humidity Pressure Visibility Wind Dir Wind Speed Gust Speed Precip Events Conditions
12:56 AM 66.0 °F 52.0 °F 60% 30.04 in 10.0 mi Calm Calm - N/A   Clear
1:56 AM 64.0 °F 51.1 °F 63% 30.03 in 10.0 mi Calm Calm - N/A   Clear
2:56 AM 63.0 °F 51.1 °F 65% 30.02 in 10.0 mi Calm Calm - N/A   Scattered Clouds
3:56 AM 62.1 °F 51.1 °F 67% 30.02 in 10.0 mi Calm Calm - N/A   Clear
4:56 AM 62.1 °F 50.0 °F 65% 30.02 in 10.0 mi Calm Calm - N/A   Clear
5:56 AM 57.0 °F 51.1 °F 81% 30.03 in 10.0 mi Calm Calm - N/A   Scattered Clouds
6:56 AM 57.0 °F 51.1 °F 81% 30.04 in 10.0 mi Calm Calm - N/A   Scattered Clouds
7:56 AM 57.0 °F 51.1 °F 81% 30.04 in 9.0 mi Calm Calm - N/A   Scattered Clouds
8:56 AM 59.0 °F 52.0 °F 78% 30.04 in 9.0 mi Calm Calm - N/A   Scattered Clouds
9:56 AM 62.1 °F 51.1 °F 67% 30.04 in 10.0 mi SE 3.5 mph - N/A   Mostly Cloudy
10:56 AM 66.0 °F 53.1 °F 63% 30.03 in 10.0 mi Calm Calm - N/A   Mostly Cloudy
11:56 AM 71.1 °F 53.1 °F 53% 30.02 in 10.0 mi SSE 3.5 mph - N/A   Mostly Cloudy
12:56 PM 73.9 °F 53.1 °F 48% 30.01 in 10.0 mi ESE 9.2 mph - N/A   Mostly Cloudy
1:56 PM 73.9 °F 53.1 °F 48% 29.99 in 10.0 mi Variable 6.9 mph - N/A   Mostly Cloudy
2:56 PM 75.0 °F 53.1 °F 46% 29.96 in 10.0 mi Variable 5.8 mph - N/A   Mostly Cloudy
3:56 PM 73.9 °F 55.0 °F 52% 29.95 in 10.0 mi East 10.4 mph - N/A   Mostly Cloudy
4:56 PM 73.0 °F 55.9 °F 55% 29.94 in 10.0 mi ESE 11.5 mph - N/A   Mostly Cloudy
5:56 PM 71.1 °F 55.0 °F 57% 29.94 in 10.0 mi East 9.2 mph - N/A   Mostly Cloudy
6:56 PM 70.0 °F 54.0 °F 57% 29.93 in 10.0 mi SE 5.8 mph - N/A   Overcast
7:56 PM 69.1 °F 54.0 °F 58% 29.94 in 10.0 mi Calm Calm - N/A   Overcast
8:56 PM 69.1 °F 55.0 °F 61% 29.93 in 10.0 mi ESE 5.8 mph - N/A   Overcast
9:56 PM 69.1 °F 55.0 °F 61% 29.94 in 10.0 mi ESE 3.5 mph - N/A   Overcast
10:56 PM 68.0 °F 55.0 °F 63% 29.93 in 10.0 mi East 5.8 mph - N/A   Overcast
11:56 PM 66.9 °F 55.9 °F 68% 29.92 in 10.0 mi SE 6.9 mph - N/A   Overcast